EW0396 Cammarata IT current weather conditions

sailwx.info

Wind from 060

Air temperature 8.3° C
Dewpoint 7.6° C

Last reported at 2019-Dec-13 11:24 UTC.
Time now 2019-Dec-13 12:38 UTC

Location: N 37°37' E 013°37'.
View on Google Maps.

See reports from other nearby stations

  
Tides and Currents Weather Stations Pressure Air Temp Water Temp Dewpoint Dewpoint Depression Visibility Wind Speed Wind Dir Waves Ship Positions
date/time (UTC)wind fromknots sea level pressurealtimeterstation pressurevisibilityair tempwater tempwave heightnotes
2019-Dec-13 11:24 060 8.3
2019-Dec-13 11:15 055 2 gusting 12 8.3
2019-Dec-13 10:48 053 6 gusting 13 7.8
2019-Dec-13 10:39 046 4 gusting 9 7.8
2019-Dec-13 10:30 047 3 gusting 13 7.8
2019-Dec-13 10:21 043 6 gusting 12 7.8
2019-Dec-13 10:12 040 5 gusting 9 7.8
2019-Dec-13 10:03 035 3 gusting 9 7.8
2019-Dec-13 09:45 061 0 gusting 16 7.8
2019-Dec-13 09:36 036 6 gusting 15 7.8
2019-Dec-13 09:18 043 6 gusting 13 7.8
2019-Dec-13 08:51 046 3 gusting 14 7.8
2019-Dec-13 08:42 037 1 gusting 18 7.8
2019-Dec-13 08:24 031 8 gusting 22 7.8
2019-Dec-13 07:30 031 1 gusting 13 8.3
2019-Dec-13 07:21 051 1 gusting 15 8.3
2019-Dec-13 07:12 043 9 gusting 13 7.8
2019-Dec-13 06:45 043 7 gusting 14 7.8
2019-Dec-13 06:27 048 0 gusting 11 7.8
2019-Dec-13 06:18 039 1 gusting 16 7.8
2019-Dec-13 06:09 049 1 gusting 19 7.8
2019-Dec-13 06:00 050 6 gusting 16 7.8
2019-Dec-13 05:51 037 1 gusting 6 7.8
2019-Dec-13 05:42 038 1 gusting 15 7.8
2019-Dec-13 05:33 040 3 gusting 9 7.8
2019-Dec-13 05:06 037 0 gusting 17 7.8
2019-Dec-13 04:57 036 5 gusting 12 7.8
2019-Dec-13 04:48 043 3 gusting 13 7.2
2019-Dec-13 04:30 045 0 gusting 13 7.2
2019-Dec-13 04:03 039 3 gusting 14 7.2
2019-Dec-13 03:36 048 3 gusting 14 7.2
2019-Dec-13 03:27 045 2 gusting 13 6.7
2019-Dec-13 03:18 041 6 gusting 13 6.7
2019-Dec-13 03:00 058 10 gusting 13 7.2
2019-Dec-13 02:33 040 1 gusting 13 6.7
2019-Dec-13 02:24 041 4 gusting 6 7.2
2019-Dec-13 02:15 046 1 gusting 4 7.2
2019-Dec-13 01:57 018 6 gusting 13 7.2
2019-Dec-13 01:48 046 7.8
2019-Dec-13 01:39 017 3 gusting 8 7.8
2019-Dec-13 01:12 038 7.2
2019-Dec-13 01:03 044 3 gusting 9 6.7
2019-Dec-13 00:54 046 0 gusting 3 6.7
2019-Dec-13 00:27 068 0 gusting 6 7.2
2019-Dec-13 00:09 051 3 gusting 9 7.2
2019-Dec-12 23:42 048 3 gusting 10 7.2
2019-Dec-12 23:33 038 3 gusting 8 7.2
2019-Dec-12 23:24 054 4 gusting 12 7.2
2019-Dec-12 23:15 056 2 gusting 13 7.8
2019-Dec-12 23:06 028 5 gusting 18 7.8
2019-Dec-12 22:21 001 5 gusting 11 7.8
2019-Dec-12 22:03 051 10 gusting 17 7.8
2019-Dec-12 21:54 059 4 gusting 6 7.8
2019-Dec-12 21:36 015 3 gusting 9 7.8
2019-Dec-12 21:09 033 4 gusting 13 7.8
2019-Dec-12 21:00 042 6 gusting 13 7.8
2019-Dec-12 20:51 039 5 gusting 9 7.8
2019-Dec-12 19:57 057 3 gusting 13 7.8
2019-Dec-12 19:48 050 7.8
2019-Dec-12 19:39 044 3 gusting 21 7.8
2019-Dec-12 19:30 009 3 gusting 9 7.8
2019-Dec-12 18:54 038 2 gusting 20 7.8
2019-Dec-12 18:45 045 8 gusting 13 7.8
2019-Dec-12 18:36 053 6 gusting 12 7.8
2019-Dec-12 17:24 016 2 gusting 8 7.8
2019-Dec-12 17:15 004 2 gusting 8 7.8
2019-Dec-12 17:06 008 2 gusting 13 7.8
2019-Dec-12 16:57 048 3 gusting 14 7.8
2019-Dec-12 16:48 038 2 gusting 12 7.8
2019-Dec-12 16:39 035 1 gusting 14 7.2
2019-Dec-12 16:30 048 6 gusting 14 7.8
2019-Dec-12 16:12 011 7.8
2019-Dec-12 15:54 047 1 gusting 23 7.8
2019-Dec-12 15:45 047 5 gusting 23 8.3
2019-Dec-12 15:36 048 3 gusting 26 7.8
2019-Dec-12 15:27 047 6 gusting 26 7.8
2019-Dec-12 15:18 045 14 gusting 28 7.8
2019-Dec-12 15:09 042 10 gusting 25 7.8
2019-Dec-12 15:00 046 7 gusting 18 7.8
2019-Dec-12 14:42 039 12 gusting 19 7.8
2019-Dec-12 14:15 043 6 gusting 13 7.8
2019-Dec-12 13:57 039 9 gusting 18 7.2
2019-Dec-12 13:48 038 12 gusting 20 7.8
2019-Dec-12 13:39 040 8 gusting 18 7.8
2019-Dec-12 13:30 043 6 gusting 16 7.8
2019-Dec-12 13:12 041 3 gusting 16 8.3
2019-Dec-12 12:54 048 4 gusting 16 8.3
2019-Dec-12 12:45 042 6 gusting 13 7.8
2019-Dec-12 12:27 040 6 gusting 13 7.2
2019-Dec-12 12:18 036 6 gusting 13 7.2
2019-Dec-12 12:09 039 7 gusting 13 7.2
2019-Dec-12 12:00 044 1 gusting 17 7.2
2019-Dec-12 11:51 035 6 gusting 14 8.3
2019-Dec-12 11:42 038 3 gusting 13 8.3
2019-Dec-12 11:33 044 2 gusting 13 8.9
2019-Dec-12 11:15 037 11 gusting 19 8.3
2019-Dec-12 11:06 035 13 gusting 20 8.3
2019-Dec-12 10:57 035 10 gusting 19 7.8
2019-Dec-12 10:39 044 6 gusting 19 7.2
2019-Dec-12 10:21 038 5 gusting 19 7.2
2019-Dec-12 10:03 045 3 gusting 19 7.2
2019-Dec-12 09:54 041 7 gusting 13 7.2
2019-Dec-12 09:45 045 6 gusting 13 7.8
2019-Dec-12 09:36 040 6 gusting 15 7.8
2019-Dec-12 09:09 043 14 gusting 21 8.3
2019-Dec-12 08:33 035 5 gusting 8 7.2
2019-Dec-12 08:24 034 1 gusting 12 7.8
2019-Dec-12 08:15 029 0 gusting 9 7.8
2019-Dec-12 08:06 015 0 gusting 11 7.2
2019-Dec-12 07:48 003 7.2
2019-Dec-12 07:30 020 3 gusting 8 7.2
2019-Dec-12 07:03 012 7.2
2019-Dec-12 06:54 038 2 gusting 10 7.8
2019-Dec-12 06:36 107 7.2
2019-Dec-12 06:27 039 6 gusting 12 7.2
2019-Dec-12 06:18 049 7.2
2019-Dec-12 06:00 022 1 gusting 6 7.2
2019-Dec-12 05:51 031 0 gusting 8 7.2
2019-Dec-12 05:42 016 1 gusting 8 7.2
2019-Dec-12 05:06 011 0 gusting 12 6.7
2019-Dec-12 04:57 024 4 gusting 8 5.6
2019-Dec-12 04:48 042 2 gusting 6 5.6
2019-Dec-12 04:30 044 1 gusting 7 5.6
2019-Dec-12 04:12 067 5.6
2019-Dec-12 04:03 034 2 gusting 6 5.6
2019-Dec-12 03:45 059 2 gusting 5 5.6
2019-Dec-12 03:27 040 3 gusting 6 5.6
2019-Dec-12 03:00 053 5.6
2019-Dec-12 02:42 041 3 gusting 8 5.6
2019-Dec-12 02:33 029 0 gusting 10 5.6
2019-Dec-12 02:06 022 2 gusting 6 5.6
2019-Dec-12 01:48 043 5 gusting 16 5.6
2019-Dec-12 01:39 042 7 gusting 16 5.6
2019-Dec-12 01:21 037 1 gusting 14 5.6
2019-Dec-12 01:12 044 1 gusting 6 5.6
2019-Dec-12 01:03 031 0 gusting 11 5.6
2019-Dec-12 00:54 036 1 gusting 10 5.6
2019-Dec-12 00:45 041 1 gusting 14 5.6
2019-Dec-12 00:27 051 6 gusting 13 5.6
2019-Dec-12 00:18 041 2 gusting 16 5.6
2019-Dec-11 23:51 043 1 gusting 16 5.6
2019-Dec-11 23:42 044 7 gusting 19 5.6
2019-Dec-11 23:24 041 1 gusting 16 5.6
2019-Dec-11 23:06 047 4 gusting 17 5.6
2019-Dec-11 22:57 045 2 gusting 18 5.6
2019-Dec-11 22:48 045 10 gusting 19 5.6
2019-Dec-11 22:39 042 6 gusting 22 5.6
2019-Dec-11 22:30 039 10 gusting 16 5.6
2019-Dec-11 22:21 045 5 gusting 20 5.6
2019-Dec-11 22:03 042 5 gusting 14 5.6
2019-Dec-11 21:45 040 6 gusting 12 5.6
2019-Dec-11 21:18 045 7 gusting 13 5.6
2019-Dec-11 20:33 042 4 gusting 11 5.6
2019-Dec-11 20:24 041 6 gusting 14 5.6
2019-Dec-11 20:06 036 0 gusting 14 5.6
2019-Dec-11 19:48 041 6 gusting 17 5.6
2019-Dec-11 19:21 047 6 gusting 15 5.6
2019-Dec-11 19:12 041 8 gusting 16 5.6
2019-Dec-11 18:45 042 6 gusting 22 6.1
2019-Dec-11 18:27 031 9 gusting 16 5.6
2019-Dec-11 17:42 041 9 gusting 19 6.1
2019-Dec-11 17:24 044 13 gusting 19 6.7
2019-Dec-11 17:15 043 13 gusting 20 6.7
2019-Dec-11 17:06 044 10 gusting 18 6.7
2019-Dec-11 16:48 043 3 gusting 18 6.7
2019-Dec-11 16:39 036 5 gusting 13 6.7
2019-Dec-11 16:21 044 8 gusting 19 6.7
2019-Dec-11 16:12 036 8 gusting 18 6.7
2019-Dec-11 15:54 045 14 gusting 19 7.2
2019-Dec-11 15:45 033 7 gusting 14 7.2
2019-Dec-11 15:36 040 7 gusting 14 7.2
2019-Dec-11 15:27 048 10 gusting 15 7.2
2019-Dec-11 15:18 040 9 gusting 15 7.2
2019-Dec-11 15:09 039 6 gusting 18 7.2
2019-Dec-11 15:00 044 8 gusting 14 7.2
2019-Dec-11 14:33 044 11 gusting 18 7.8
2019-Dec-11 14:24 037 8 gusting 15 7.8
2019-Dec-11 14:15 046 6 gusting 18 7.8
2019-Dec-11 13:48 042 5 gusting 17 7.8
2019-Dec-11 13:39 048 13 gusting 19 8.3
2019-Dec-11 13:30 043 6 gusting 18 8.3
2019-Dec-11 13:21 039 6 gusting 18 8.3
2019-Dec-11 13:12 037 6 gusting 14 8.3
2019-Dec-11 13:03 041 10 gusting 20 7.8
2019-Dec-11 12:54 041 8 gusting 19 7.8
2019-Dec-11 12:45 043 6 gusting 19 7.8
2019-Dec-11 12:27 039 6 gusting 18 8.3
2019-Dec-11 12:00 043 14 gusting 20 8.3